www.pogodaiklimat.ru

Погода и климат >> Архив погоды >> Россия >> Адыгея >> Даховская


ПОГОДА в Даховской

  • Прогноз погоды в Даховской
  • Монитор погоды в Даховской

АРХИВ ПОГОДЫ в Даховской

Время (UTC), дата Ветер
(напр.,м/с)
 
Видим.   Явления Облачность Т
(С)
Тd
(С)
f
(%)
Тe
(С)
Тes
(С)
Комфортность P
(гПа)
Po
(гПа)
Тmin
(С)
Tmax
(С)
R
(мм)
R24
(мм)
S
(см)
03 18.08 ЮЗ 2 10 км гроза, ливневой дождь 10/10 300 м
[Cb calv]
+18.5 +18.5 100 +20 +20 1009.6 952.5 +18.3 17
06 18.08 штиль 0 4000 м гроза, ливневой дождь 10/10 300 м
[Cb calv]
+18.8 +18.8 100 +20 +20 1009.5 952.5
09 18.08 штиль 0 20 км {гроза, ливн. осадки} 8/8 1000 м
[Sc diur, vesp]
+22.2 +18.6 80 +27 +32 душно 1008.4 952.1
12 18.08 С 3 20 км {гроза, ливн. осадки} 10/10 1000 м
[Cb cap]
+22.3 +19.3 83 +28 +28 душно 1009.2 952.9
15 18.08 С 2 4000 м дымка 10/10 1000 м
[Sc]
+20.0 +20.0 100 +24 +24 комфорт 1010.7 953.9 +24.7 15
18 18.08 штиль 0 500 м туман ?/? +19.4 +19.4 100 +22 +22 комфорт 1012.6 955.5
21 18.08 СЗ 1 500 м туман ?/? +19.5 +19.5 100 +23 +23 комфорт 1012.7 955.6
00 19.08 С 1 500 м туман ?/? +18.8 +18.8 100 +21 +21 комфорт 1013.5 956.3
03 19.08 штиль 0 500 м туман ?/? +18.6 +18.8 100 +20 +20 1014.5 957.2 +18.5
06 19.08 С 1 20 км {туман} 10/10 1000 м
[Sc]
+20.9 +19.2 90 +27 +27 душно 1014.7 957.8
09 19.08 С 3 20 км 9/9 1000 м
[Sc]
+22.1 +19.1 83 +28 +29 душно 1014.8 958.1
12 19.08 СЗ 1 50 км 3/3 1000 м
[Sc]
+27.0 +20.6 68 +34 +42 очень
душно
1013.2 957.5
15 19.08 штиль 0 20 км 10/10 1000 м
[Sc]
+25.1 +20.4 75 +31 +31 очень
душно
1013.7 957.6 +27.7
18 19.08 штиль 0 50 км ясно +20.1 +20.1 100 +24 +24 комфорт 1016.1 959.0
21 19.08 штиль 0 4000 м дымка 10/10 1000 м
[Sc]
+19.0 +19.0 100 +21 +21 комфорт 1016.5 959.2
00 20.08 Ю 1 4000 м дымка 10/10 1000 м
[Sc]
+19.3 +19.3 100 +23 +23 комфорт 1016.1 958.8
03 20.08 штиль 0 4000 м гроза без осадков 10/10 600 м
[Cb calv]
+19.0 +19.0 100 +21 +21 комфорт 1016.8 959.4 +18.8
06 20.08 штиль 0 50 км {гроза} 6/6 1000 м
[Sc]
+24.1 +19.3 75 +29 +33 душно 1015.5 959.2
09 20.08 СВ 1 50 км 6/0
[Ac cast]
+29.6 +18.6 52 +35 +45 очень
душно
1013.5 958.3
12 20.08 СВ 2 50 км 3/0
[Ac cast]
+29.7 +17.5 48 +34 +42 очень
душно
1013.7 958.4
15 20.08 штиль 0 50 км 10/10 1000 м
[Sc]
+26.1 +21.1 74 +33 +33 очень
душно
1013.8 958.0 +30.9
18 20.08 штиль 0 50 км гроза без осадков 10/10 1000 м
[Cb calv]
+21.8 +21.8 100 +28 +28 душно 1017.5 960.7
21 20.08 штиль 0 50 км гроза без осадков 10/10 1000 м
[Cb calv]
+20.4 +21.8 100 +24 +24 комфорт 1017.5 958.6
00 21.08 штиль 0 50 км {гроза} 10/10 1000 м
[Sc diur, vesp]
+19.2 +19.2 100 +21 +21 комфорт 1015.4 958.2
03 21.08 штиль 0 50 км {ливн. осадки} 6/0
[Ac lent Ci fib]
+18.5 +19.2 100 +19 +19 1015.4 957.9 +18.5 0.5
06 21.08 штиль 0 50 км {ливн. осадки} 8/5 1000 м
[Sc Ci]
+22.4 +19.2 82 +28 +33 душно 1014.0 957.4 +18.5
09 21.08 С 2 50 км 1/0
[Ac cast]
+29.3 +20.4 59 +36 +50 очень
душно
1010.5 955.4
12 21.08 СВ 2 50 км 1/0
[Ac cast]
+31.6 +19.3 48 +37 +46 очень
душно
1008.7 954.0
15 21.08 штиль 0 50 км 6/0
[Ac cast]
+26.3 +19.7 67 +32 +33 очень
душно
1009.3 953.7 +31.8
18 21.08 штиль 0 50 км 9/9 1000 м
[Sc]
+20.8 +18.3 86 +25 +25 комфорт 1010.0 953.3
21 21.08 ЮВ 1 50 км 6/6 1000 м
[Sc]
+19.5 +19.5 100 +23 +23 комфорт 1011.5 954.6
00 22.08 штиль 0 50 км ясно +18.3 +18.3 100 +19 +19 1011.6 954.4
03 22.08 штиль 0 50 км 8/8 1000 м
[Sc]
+17.4 +17.4 100 +17 +17 1011.6 954.0 +17.4
06 22.08 СЗ 1 50 км 10/10 1000 м
[Sc]
+19.7 +19.7 100 +24 +24 комфорт 1011.5 954.5 +17.4
09 22.08 СЗ 1 50 км 10/10 1000 м
[Sc]
+23.3 +18.2 73 +29 +29 душно 1011.1 954.8
12 22.08 СВ 1 50 км 8/8 1000 м
[Sc]
+26.0 +19.9 69 +32 +34 очень
душно
1010.1 954.4
15 22.08 штиль 0 50 км 9/9 1000 м
[Sc]
+24.8 +21.3 81 +31 +32 очень
душно
1010.1 954.2 +28.3
18 22.08 штиль 0 50 км 6/6 1000 м
[Sc]
+19.5 +19.5 100 +22 +22 комфорт 1012.0 955.0
21 22.08 штиль 0 50 км 10/10 1000 м
[Sc]
+18.3 +18.3 100 +19 +19 1012.7 955.3
00 23.08 штиль 0 50 км 10/10 1000 м
[Sc]
+17.6 +17.6 100 +18 +18 1013.0 955.5
03 23.08 штиль 0 50 км 10/6 1000 м
[Sc Ac lent]
+16.8 +16.8 100 +17 +17 1013.5 955.9 +16.8
06 23.08 штиль 0 50 км 10/3 1000 м
[Sc Ac cast Cs]
+22.5 +17.6 74 +28 +31 душно 1012.9 956.3
09 23.08 ЮЗ 1 50 км 9/0
[Ac cast Cs]
+28.0 +17.4 53 +32 +42 душно 1010.9 955.5
12 23.08 СЗ 1 50 км 10/0
[Cs]
+30.2 +14.8 39 +32 +41 жарко 1010.9 955.8
15 23.08 З 1 50 км 8/0
[Ac cast Ci]
+26.0 +18.3 63 +31 +31 очень
душно
1011.8 956.0 +30.3
18 23.08 штиль 0 50 км ясно +18.4 +18.4 100 +19 +19 1014.3 956.9
21 23.08 штиль 0 50 км ясно +16.7 +16.7 100 +17 +17 1014.2 956.4
00 24.08 ЮВ 1 50 км 10/0
[Ac cast Cs]
+16.0 +16.0 100 +17 +17 1014.5 956.6
03 24.08 штиль 0 50 км 10/5 1000 м
[Sc Cs]
+16.1 +16.1 100 +16 +16 1015.4 957.4 +15.9
06 24.08 штиль 0 50 км 10/0
[Ac cast Cs]
+22.7 +16.5 68 +27 +32 душно 1013.9 957.3
09 24.08 штиль 0 50 км 10/10 1000 м
[Sc]
+25.4 +17.7 62 +30 +30 душно 1012.7 956.7
12 24.08 С 2 50 км 10/0
[Ac cast Cs]
+26.6 +18.5 61 +31 +36 душно 1013.3 957.5
15 24.08 штиль 0 50 км 10/10 1000 м
[Sc]
+24.6 +20.3 77 +30 +30 очень
душно
1014.2 958.0 +28.4
18 24.08 штиль 0 50 км 10/10 1000 м
[Sc]
+19.3 +15.6 79 +21 +21 комфорт 1015.3 958.0
21 24.08 В 1 50 км 3/3 1000 м
[Sc]
+16.7 +16.7 100 +18 +18 1015.8 958.0
00 25.08 Ю 1 50 км 3/3 1000 м
[Sc]
+15.6 +15.6 100 +16 +16 1015.9 957.9

 

Местоположение метеостанции Даховская (Адыгея, Россия): широта 44.67 долгота 40.75 высота над уровнем моря 264 м.

В архиве по умолчанию представлена погода в Даховской за последнюю неделю. Архивные данные за месяц целиком и за предыдущие месяцы, начиная с января 2011 года, Вы можете получить, выбрав интересующий диапазон дат из раскрывающегося списка и нажав кнопку "Ввод!".


*Определитесь, кто Вы:
робот инопланетянин человек

Внимание! Время в таблицах - всемирное. Для получения местного времени необходимо прибавить поправку, которая равна 3 ч.

Смотрите также архив погоды в соседних городах и на ближайших метеорологических станциях:

Погода в Дондуковской (Адыгея, Россия) (38 км)
Погода в Армавире (Краснодарский край, Россия) (45 км)
Погода в Майкопе (Адыгея, Россия) (53 км)
Погода в Шунтуке (Адыгея, Россия) (55 км)
Погода в Псебае (Краснодарский край, Россия) (60 км)
Погода в Отрадной (Краснодарский край, Россия) (65 км)
Погода в Белореченске (Краснодарский край, Россия) (68 км)
Погода в Кропоткине (Краснодарский край, Россия) (86 км)
Погода в Гузерипле (Адыгея, Россия) (89 км)
Погода в Невинномысске (Ставропольский край, Россия) (97 км)

Пояснения к столбцам:

Ветер - указаны скорость ветра в м/с - средняя за 10 мин, порывы в срок и между сроками (в фигурных скобках) и направление, откуда дует ветер: С - северный, СВ - северо-восточный, В - восточный, ЮВ - юго-восточный, Ю - южный, ЮЗ - юго-западный, З - западный, СЗ - северо-западный.
Видимость - горизонтальная дальность видимости в метрах или километрах. При видимости от 1 до 10 км при отсутствии осадков обычно наблюдается дымка, при ухудшении видимости до 1 км и менее - туман. В сухую погоду видимость может ухудшаться дымом, пылью или мглою.
Явления - указаны атмосферные явления, наблюдавшиеся в срок или в последний час перед сроком; фигурными скобками обозначены явления, наблюдавшиеся между сроками (за 1-3 часа до срока); квадратными скобками обозначены град или гололедные отложения с указанием их диаметра в мм.
Облачность - указаны через наклонную черту общая и нижняя облачность в баллах и высота нижней границы облаков в метрах; квадратными скобками обозначены формы облаков: Ci - перистые, Cs - перисто-слоистые, Cc - перисто-кучевые, Ac - высококучевые, As - высокослоистые, Sc - слоисто-кучевые, Ns - слоисто-дождевые, Cu - кучевые, Cb - кучево-дождевые. Подробнее классификацию облаков см. в Атласе облаков (PDF).
T - Температура воздуха - температура, измеренная на высоте 2 м над землей.
Td - Температура точки росы - температура, при понижении до которой содержащийся в воздухе водяной пар достигнет насыщения.
f - Относительная влажность воздуха - влажноcть воздуха, измеренная на высоте 2 м над землей.
Te - Эффективная температура - температура, которую ощущает одетый по сезону человек в тени. Характеристика душности погоды. При расчете учитывается влияние влажности воздуха и скорости ветра на теплоощущения человека.
Tes - Эффективная температура на солнце - температура, которую ощущает человек, с поправкой на солнечный нагрев. Характеристика знойности погоды. Зависит от высоты солнца над горизонтом, облачности и скорости ветра. Ночью, в пасмурную погоду, а также при ветре 12 м/с и более поправка равна нулю.
P - Атмосферное давление - приведенное к уровню моря атмосферное давление.
Po - Атмосферное давление - измеренное на уровне метеостанции атмосферное давление.
Tmin - Минимальная температура - минимум температуры воздуха на высоте 2 м над землей.
Tmax - Максимальная температура - максимум температуры воздуха на высоте 2 м над землей.
R - Количество осадков - Количество выпавших осадков за период времени, мм. При наведении курсора мыши на число - период времени, за который выпало указанное количество осадков.
R24 - Количество осадков - Количество выпавших осадков за 24 часа, мм.
S - Снежный покров - Высота снежного покрова, см. При наведении курсора мыши на число - состояние снежного покрова и степень покрытия местности в баллах.